Погода в Сновской

Россия / Липецкая область     52°15′31″N   38°42′00″E
темп.,
°C
ветер,
м/с
пор.,
м/с
влажн.,
%
обл.,
%
осадки,
мм/ч
давл.,
гПа
погр.,
м
19 апреля, пн
пн1900:00+7вюв3580100 0.0 101892
03:00+7вюв238572 0.1 101882
06:00+6вюв2489100 0.2 1017124
09:00+7в2392100 2.1 1018157
12:00+10ссв117087 2.0 1017535
15:00+13с125569 2.2 10161206
18:00+11св4473100 1.9 1016482
21:00+8св5891100 4.0 1016383
20 апреля, вт
вт2000:00+8вюв5992100 3.6 1016522
03:00+7всв4795100 5.4 1015471
06:00+7в4891100 0.5 1015692
09:00+8в5993100 0.8 1014692
12:00+9в7984100 0.1 1013751
15:00+8всв91388100 0.6 1009908
18:00+6всв111995100 12.6 1003951
21:00+9вюв81595100 20.1 1000617
21 апреля, ср
ср2100:00+10юв7149170 0.8 999611
03:00+9ююв71387100 1.2 998631
06:00+8ююв61195100 0.7 998839
09:00+3зюз91594100 1.3 1004823
12:00+6юз71386100 0.1 10091171
15:00+9зюз71171100 0.2 10111539
18:00+8юз487998 0.1 1014538
21:00+7ююз498091 0.3 1015341
22 апреля, чт
чт2200:00+5ююз4108735 0.0 1017257
03:00+5ююз5138562 0.0 1017333
06:00+4ююз4118772 0.0 1018289
09:00+9ююз61074100 0.0 1019479
12:00+13ююз7106162 0.3 10201574
15:00+14ююз7958100 1.4 10191603
18:00+12ю4868100 0.3 1020356
21:00+10ю4117999 0.3 1021244
23 апреля, пт
пт2300:00+8ю4118384 0.0 1021253
03:00+9ююв41083100 0.1 1020237
06:00+9ююв4108598 0.1 1020231
09:00+12ю6107084 0.2 1019634
12:00+15ю895664 0.9 10181639
15:00+15ю7958100 2.8 10161470
18:00+14ю711685 1.6 1015749
21:00+11ю6147552 1.6 1015416